Lincolnton, NC

2:36 AM EDT on October 17, 2017 (GMT -0400)
Lincolnton-Lincoln County Regional

Weather History for KIPJ - February, 2014

Change the Weather History Date:

Friday, February 28, 2014

  Actual Average (KCLT) Record (KCLT)
Temperature  
Mean Temperature 36 °F -  
Max Temperature 47 °F 57 °F 78 °F (1962)
Min Temperature 24 °F 35 °F 14 °F (2002)
Degree Days  
Heating Degree Days 30    
Moisture  
Dew Point 13 °F    
Average Humidity 42    
Maximum Humidity 71    
Minimum Humidity 22    
Precipitation  
Precipitation 0.00 in - - ()
Sea Level Pressure  
Sea Level Pressure 30.17 in    
Wind  
Wind Speed 3 mph (ENE)    
Max Wind Speed 9 mph    
Max Gust Speed 18 mph    
Visibility 10 miles    
Events      
Averages and records for this station are not official NWS values.
T = Trace of Precipitation, MM = Missing Value Source: NWS Daily Summary

Daily Weather History Graph

Daily Weather History Graph

Search for Another Location

Airport or City:

Trip Planner

Search our weather history database for the weather conditions in past years. The results will help you decide how hot, cold, wet, or windy it might be!

Date:

Astronomy

Feb. 28, 2014 Rise Set
Actual Time 6:55 AM EST 6:19 PM EST
Civil Twilight 6:30 AM EST 6:44 PM EST
Nautical Twilight 6:00 AM EST 7:14 PM EST
Astronomical Twilight 5:31 AM EST 7:43 PM EST
Moon 6:08 AM EST (2/28) 5:53 PM EST (2/28)
Length of Visible Light 12h 14m
Length of Day
11h 23m
Waning Crescent, 1% of the Moon is Illuminated
Feb 28
Waning Crescent
Mar 1
New
Mar 8
First Quarter
Mar 16
Full
Mar 23
Last Quarter

Hourly Weather History & Observations

Time (EST) Temp. Windchill Dew Point Humidity Pressure Visibility Wind Dir Wind Speed Gust Speed Precip Events Conditions
12:15 AM 27.3 °F - 12.7 °F 54% 29.97 in 10.0 mi Calm Calm - N/A   Clear
12:35 AM 25.3 °F - 15.8 °F 67% 29.98 in 10.0 mi Calm Calm - N/A   Clear
12:55 AM 27.0 °F - 13.8 °F 58% 29.99 in 10.0 mi Calm Calm - N/A   Clear
1:15 AM 25.3 °F - 17.1 °F 71% 30.00 in 10.0 mi Calm Calm - N/A   Clear
1:35 AM 24.4 °F - 14.5 °F 66% 30.01 in 10.0 mi Calm Calm - N/A   Clear
1:55 AM 24.6 °F - 15.4 °F 68% 30.02 in 10.0 mi Calm Calm - N/A   Clear
2:15 AM 24.3 °F - 15.4 °F 69% 30.04 in 10.0 mi Calm Calm - N/A   Clear
2:35 AM 25.5 °F - 14.2 °F 62% 30.04 in 10.0 mi Calm Calm - N/A   Clear
2:55 AM 26.6 °F - 12.4 °F 55% 30.05 in 10.0 mi Calm Calm - N/A   Clear
3:15 AM 27.7 °F 23.8 °F 12.0 °F 52% 30.05 in 10.0 mi NE 3.5 mph - N/A   Clear
3:35 AM 28.0 °F 22.8 °F 12.0 °F 51% 30.06 in 10.0 mi ENE 4.6 mph - N/A   Clear
3:55 AM 28.4 °F 22.2 °F 11.3 °F 49% 30.05 in 10.0 mi NE 5.8 mph - N/A   Clear
4:15 AM 29.3 °F 23.2 °F 10.0 °F 45% 30.07 in 10.0 mi ENE 5.8 mph - N/A   Clear
4:35 AM 28.8 °F 25.0 °F 10.0 °F 46% 30.08 in 10.0 mi NE 3.5 mph - N/A   Clear
4:55 AM 28.0 °F 22.8 °F 10.4 °F 48% 30.08 in 10.0 mi NE 4.6 mph - N/A   Clear
5:15 AM 28.8 °F 23.7 °F 9.5 °F 45% 30.09 in 10.0 mi East 4.6 mph - N/A   Clear
5:35 AM 28.9 °F 25.2 °F 9.7 °F 45% 30.10 in 10.0 mi NNE 3.5 mph - N/A   Clear
5:55 AM 28.6 °F 23.5 °F 9.7 °F 45% 30.12 in 10.0 mi East 4.6 mph - N/A   Clear
6:15 AM 28.8 °F 25.0 °F 10.0 °F 46% 30.13 in 10.0 mi ENE 3.5 mph - N/A   Clear
6:35 AM 28.4 °F 22.2 °F 10.0 °F 46% 30.14 in 10.0 mi ENE 5.8 mph - N/A   Clear
6:55 AM 28.6 °F 22.4 °F 10.0 °F 46% 30.15 in 10.0 mi ENE 5.8 mph - N/A   Clear
7:15 AM 26.8 °F 22.8 °F 10.8 °F 51% 30.16 in 10.0 mi NNE 3.5 mph - N/A   Clear
7:35 AM 28.6 °F 22.4 °F 10.0 °F 46% 30.17 in 10.0 mi ENE 5.8 mph - N/A   Clear
7:55 AM 30.0 °F 25.2 °F 10.2 °F 44% 30.18 in 10.0 mi ENE 4.6 mph - N/A   Clear
8:15 AM 31.5 °F 24.9 °F 9.7 °F 40% 30.20 in 10.0 mi ENE 6.9 mph - N/A   Clear
8:35 AM 32.2 °F 26.7 °F 9.1 °F 38% 30.21 in 10.0 mi ENE 5.8 mph - N/A   Clear
8:55 AM 32.7 °F 25.0 °F 8.6 °F 37% 30.21 in 10.0 mi ENE 9.2 mph - N/A   Clear
9:15 AM 33.8 °F 27.0 °F 8.1 °F 34% 30.23 in 10.0 mi ENE 8.1 mph - N/A   Clear
9:35 AM 34.7 °F 27.5 °F 8.6 °F 34% 30.23 in 10.0 mi East 9.2 mph 16.1 mph N/A   Clear
9:55 AM 35.8 °F 29.4 °F 7.5 °F 31% 30.24 in 10.0 mi SE 8.1 mph - N/A   Clear
10:15 AM 36.7 °F 32.0 °F 8.4 °F 31% 30.25 in 10.0 mi NE 5.8 mph - N/A   Clear
10:35 AM 37.6 °F 32.3 °F 8.4 °F 30% 30.25 in 10.0 mi ENE 6.9 mph - N/A   Clear
10:55 AM 38.3 °F 33.9 °F 9.3 °F 30% 30.25 in 10.0 mi NNE 5.8 mph - N/A   Clear
11:15 AM 39.7 °F 34.3 °F 9.9 °F 29% 30.25 in 10.0 mi SSE 8.1 mph - N/A   Clear
11:35 AM 39.7 °F 36.5 °F 9.0 °F 28% 30.25 in 10.0 mi NE 4.6 mph - N/A   Clear
11:55 AM 41.2 °F 36.0 °F 10.0 °F 28% 30.25 in 10.0 mi NE 8.1 mph - N/A   Clear
12:15 PM 41.5 °F 37.8 °F 9.7 °F 27% 30.24 in 10.0 mi ESE 5.8 mph - N/A   Clear
12:35 PM 42.3 °F 37.9 °F 9.3 °F 26% 30.24 in 10.0 mi ENE 6.9 mph 18.4 mph N/A   Clear
12:55 PM 43.2 °F 39.7 °F 9.9 °F 26% 30.23 in 10.0 mi ESE 5.8 mph - N/A   Clear
1:15 PM 44.4 °F 41.2 °F 9.7 °F 24% 30.22 in 10.0 mi East 5.8 mph - N/A   Clear
1:35 PM 44.8 °F 40.4 °F 10.8 °F 25% 30.21 in 10.0 mi East 8.1 mph - N/A   Clear
1:55 PM 44.8 °F 41.0 °F 9.5 °F 24% 30.20 in 10.0 mi East 6.9 mph - N/A   Clear
2:15 PM 45.9 °F 42.3 °F 10.8 °F 24% 30.19 in 10.0 mi SE 6.9 mph - N/A   Clear
2:35 PM 46.2 °F 42.7 °F 10.9 °F 24% 30.19 in 10.0 mi ESE 6.9 mph - N/A   Clear
2:55 PM 46.8 °F - 10.2 °F 23% 30.18 in 10.0 mi SE 4.6 mph - N/A   Clear
3:15 PM 46.9 °F - 10.0 °F 22% 30.18 in 10.0 mi ESE 6.9 mph - N/A   Clear
3:35 PM 45.5 °F 42.5 °F 10.8 °F 24% 30.18 in 10.0 mi ESE 5.8 mph - N/A   Clear
3:55 PM 46.4 °F 44.3 °F 11.3 °F 24% 30.18 in 10.0 mi ENE 4.6 mph - N/A   Clear
4:15 PM 47.3 °F - 10.9 °F 23% 30.18 in 10.0 mi Calm Calm - N/A   Clear
4:36 PM 46.0 °F 44.8 °F 10.8 °F 24% 30.18 in 10.0 mi ENE 3.5 mph - N/A   Clear
4:55 PM 45.7 °F 44.4 °F 12.2 °F 26% 30.18 in 10.0 mi ESE 3.5 mph - N/A   Clear
5:15 PM 46.4 °F 43.5 °F 11.7 °F 25% 30.18 in 10.0 mi ENE 5.8 mph - N/A   Clear
5:35 PM 45.0 °F 43.5 °F 11.7 °F 26% 30.19 in 10.0 mi ENE 3.5 mph - N/A   Clear
5:55 PM 44.6 °F 42.2 °F 12.6 °F 27% 30.19 in 10.0 mi NW 4.6 mph - N/A   Clear
6:15 PM 44.1 °F 42.5 °F 12.4 °F 28% 30.19 in 10.0 mi WNW 3.5 mph - N/A   Clear
6:35 PM 41.9 °F - 13.8 °F 32% 30.20 in 10.0 mi Calm Calm - N/A   Clear
6:55 PM 40.1 °F - 17.2 °F 40% 30.20 in 10.0 mi Calm Calm - N/A   Clear
7:15 PM 38.8 °F - 15.6 °F 39% 30.21 in 10.0 mi Calm Calm - N/A   Clear
7:35 PM 38.3 °F - 14.9 °F 39% 30.21 in 10.0 mi Calm Calm - N/A   Clear
7:55 PM 35.8 °F - 16.5 °F 46% 30.21 in 10.0 mi Calm Calm - N/A   Clear
8:15 PM 34.3 °F - 17.1 °F 49% 30.21 in 10.0 mi Calm Calm - N/A   Clear
8:35 PM 34.0 °F - 16.9 °F 50% 30.22 in 10.0 mi Calm Calm - N/A   Clear
8:55 PM 33.1 °F - 18.7 °F 56% 30.22 in 10.0 mi Calm Calm - N/A   Clear
9:16 PM 32.2 °F - 17.6 °F 55% 30.22 in 10.0 mi Calm Calm - N/A   Clear
9:35 PM 31.6 °F - 19.8 °F 62% 30.24 in 10.0 mi Calm Calm - N/A   Clear
9:55 PM 31.5 °F - 19.4 °F 61% 30.24 in 10.0 mi Calm Calm - N/A   Clear
10:15 PM 30.7 °F - 19.4 °F 63% 30.25 in 10.0 mi Calm Calm - N/A   Clear
10:35 PM 30.6 °F - 18.5 °F 61% 30.25 in 10.0 mi Calm Calm - N/A   Clear
10:55 PM 30.2 °F - 19.2 °F 64% 30.25 in 10.0 mi Calm Calm - N/A   Clear
11:15 PM 29.3 °F - 19.6 °F 67% 30.26 in 10.0 mi Calm Calm - N/A   Clear
11:35 PM 29.8 °F - 19.2 °F 65% 30.25 in 10.0 mi Calm Calm - N/A   Clear
11:55 PM 30.0 °F - 19.8 °F 66% 30.26 in 10.0 mi Calm Calm - N/A   Clear